Skip Page Navigation
NASA JPL Caltech
NASA Logo - Jet Propulsion Laboratory + View the NASA Portal
+ Near-Earth Object (NEO) Program
Search JPL
JPL Home Earth Solar System Stars & Galaxies Technology
JPL Solar System Dynamics
BODIES ORBITS EPHEMERIDES TOOLS PHYSICAL DATA DISCOVERY FAQ SITE MAP
JPL Small-Body Database Browser
Search: [ help ]  
164202 (2004 EW)
Classification: Aten [NEO, PHA]          SPK-ID: 2164202
Ephemeris | Orbit Diagram | Orbital Elements | Physical Parameters | Discovery Circumstances | Close-Approach Data ]

[ hide orbit diagram ]
Orbit Diagram
Note: Make sure you have Java enabled on your browser to see the applet. This applet is provided as a 3D orbit visualization tool. The applet was implemented using 2-body methods, and hence should not be used for determining accurate long-term trajectories (over several years or decades) or planetary encounter circumstances. For accurate long-term ephemerides, please instead use our Horizons system.
Orbit Viewer

Additional Notes: the orbits shown in the applet are color coded. The planets are white lines, and the asteroid/comet is a blue line. The bright white line indicates the portion of the orbit that is above the ecliptic plane, and the darker portion is below the ecliptic plane. Likewise for the asteroid/comet orbit, the light blue indicates the portion above the ecliptic plane, and the dark blue the portion below the ecliptic plane.

Orbit Viewer applet originally written and kindly provided by Osamu Ajiki (AstroArts), and further modified by Ron Baalke (JPL).


Orbital Elements at Epoch 2456400.5 (2013-Apr-18.0) TDB
Reference: JPL 62 (heliocentric ecliptic J2000)
 Element Value Uncertainty (1-sigma)   Units 
e .2794368820826165 4.838e-07  
a .9889833605621993 2.0023e-08 AU
q .7126249338551102 4.9258e-07 AU
i 4.657011192472007 1.2214e-05 deg
node 343.3053769866142 1.5428e-05 deg
peri 55.75740384177485 3.7345e-05 deg
M 186.8097115909065 7.6683e-05 deg
tp 2456573.323556703297
(2013-Oct-07.82355670)
8.1577e-05 JED
period 359.2376973599406
0.98
1.091e-05
2.987e-08
d
yr
n 1.002122000685512 3.0433e-08 deg/d
Q 1.265341787269288 2.5618e-08 AU
  Orbit Determination Parameters
   # obs. used (total)      395  
   data-arc span      3341 days (9.15 yr)  
   first obs. used      2004-03-13  
   last obs. used      2013-05-06  
   planetary ephem.      DE405  
   SB-pert. ephem.      SB405-CPV-2  
   condition code      0  
   fit RMS      .60626  
   data source      ORB  
   producer      Otto Matic  
   solution date      2013-May-07 01:49:09  

Additional Information
 Earth MOID = .0243039 AU 
 T_jup = 6.096 
[ show covariance matrix ]

Ephemeris | Orbit Diagram | Orbital Elements | Physical Parameters | Discovery Circumstances | Close-Approach Data ]

Physical Parameter Table
Parameter Symbol Value Units Sigma Reference Notes
absolute magnitude H 20.75 mag .49472 62 autocmod 2.5c

164202 (2004 EW)          Discovered 2004-Mar-13 by CSS at Catalina (703)
Reference: 20070926/Numbers.arcLast Updated: 2007-09-30

[ show close-approach data ]
Ephemeris | Orbit Diagram | Orbital Elements | Physical Parameters | Discovery Circumstances | Close-Approach Data ]
ABOUT SSD CREDITS/AWARDS PRIVACY/COPYRIGHT GLOSSARY LINKS
FirstGov 2013-May-21 15:19 UT
(server date/time)  
NASA Home Page
Site Manager:   Donald K. Yeomans
Webmaster  Alan B. Chamberlin